Regional Weather Roundup
Issued by NWS

Home | Current Version | Previous Version | Graphics & Text | Print | Product List | Glossary On
Versions: 1 2 3 4 5 6 7 8 9 10 11 12 13 14 15 16 17 18 19 20 21 22 23 24 25 26 27 28
000
ASUS45 KGTF 031910
RWRMT
MONTANA HOURLY WEATHER ROUNDUP
NATIONAL WEATHER SERVICE GREAT FALLS MT
100 PM MDT SUN MAY 03 2015

NOTE: "FAIR" INDICATES FEW OR NO CLOUDS BELOW 12000 FEET WITH NO
SIGNIFICANT WEATHER AND/OR OBSTRUCTIONS TO VISIBILITY.

MTZ001>007-043-032000-
WEST OF THE DIVIDE

CITY           SKY/WX    TMP DP  RH WIND       PRES   REMARKS
KALISPELL      CLEAR     59  20  22 NE5       30.00F
MISSOULA       SUNNY     61  18  18 NW6       29.98F
BUTTE          MOSUNNY   58  22  24 VRB5      29.98F
EUREKA           N/A     55  19  24 NE3       30.03F
HAMILTON         N/A     59  23  25 NW6       29.96F
LIBBY            N/A     59  21  23 N5        30.01F
$$

MTZ008-052>055-032000-
SOUTHWEST MONTANA

CITY           SKY/WX    TMP DP  RH WIND       PRES   REMARKS
BOZEMAN        PTSUNNY   59  37  44 CALM      29.98F
DILLON         MOSUNNY   58  28  32 E7        29.96F
$$

MTZ009-010-012-014-046-048-049-054-032000-
EAST SLOPES AND CENTRAL MONTANA

CITY           SKY/WX    TMP DP  RH WIND       PRES   REMARKS
CUT BANK       SUNNY     55  24  30 SW8G18    30.00F
GREAT FALLS    SUNNY     57  31  37 VRB3      30.00F
MALMSTROM AFB  SUNNY     56  31  39 NW3       30.00F
HELENA         SUNNY     63  27  25 VRB5      29.98F
$$

MTZ011-013-016-021-045-047-050-051-032000-
NORTH CENTRAL MONTANA

CITY           SKY/WX    TMP DP  RH WIND       PRES   REMARKS
HAVRE          MOSUNNY   59  23  25 MISG      30.04F
LEWISTOWN      SUNNY     58  32  37 SE5       30.01F
CHINOOK          N/A     57  21  24 NE9       30.05F
FORT BENTON      N/A     61  28  29 SE5       30.01F
$$

MTZ017>020-022>042-056>058-061-062-032000-
EASTERN PLAINS

CITY           SKY/WX    TMP DP  RH WIND       PRES   REMARKS
BAKER          SUNNY     61  30  31 VRB6      30.05S
BILLINGS       MOSUNNY   59  29  31 E14       30.03F
GLASGOW        MOSUNNY   57  27  31 N10       30.06F
JORDAN           N/A     60  22  23 VRB5      30.05F
LIVINGSTON     SUNNY     59  32  36 E13       29.99F
MILES CITY     CLOUDY    58  30  34 E6        30.05F
SIDNEY         SUNNY     61  25  25 W10G16    30.05F
WOLF POINT     MOSUNNY   61  24  24 W6        30.05F
BIG TIMBER       N/A     55  28  35 E9G16     30.02F
FORSYTH          N/A     59  28  31 CALM      30.05S
PLENTYWOOD       N/A     55  23  28 W13G25    30.03F
POPLAR           N/A     59  21  23 NW8G23    30.05F
$$

REGIONAL REPORTS...DAKOTAS

CITY           SKY/WX    TMP DP  RH WIND       PRES   REMARKS
WILLISTON      LGT RAIN  62  23  22 NW16G26   30.04S
MINOT          SUNNY     61  25  25 W18G31    29.98F
DICKINSON      MOSUNNY   61  27  27 NW17      30.01F
BEACH          CLOUDY    57  28  33 NW10      30.06F
CROSBY         FAIR      57  27  30 W14G23    30.02F
WATFORD CITY   FAIR      59  25  27 N15G23    30.02S
BISMARCK       MOSUNNY   66  27  23 NW17G25   29.99S
GRAND FORKS    PTSUNNY   67  27  22 NW14G25   29.89F
FARGO          CLOUDY    66  27  23 N17G23    29.92R
BUFFALO SD       N/A     54  36  50 N7        30.00S
RAPID CITY     SUNNY     67  37  33 N17       30.00F
$$

REGIONAL REPORTS...WYOMING/IDAHO/WASHINGTON

CITY           SKY/WX    TMP DP  RH WIND       PRES   REMARKS
GILLETTE       MOSUNNY   62  35  36 VRB5      30.01F
SHERIDAN       MOSUNNY   59  37  44 VRB5      30.01F
BUFFALO WY     PTSUNNY   59  38  45 VRB6      30.03F
CODY           MOSUNNY   55  34  44 NE14      30.01S
YELLOWSTONE LA   N/A     55  19  24 VRB7G21   30.07S
IDAHO FALLS    PTSUNNY   70  33  25 VRB5      29.94F
SALMON         MOSUNNY   61  30  31 N5        29.91F
BOISE          SUNNY     69  34  27 NW6       29.89F
SPOKANE        MOSUNNY   62  23  22 NE8       29.98F
$$

REGIONAL REPORTS...ALBERTA

CITY           SKY/WX    TMP DP  RH WIND       PRES   REMARKS
EDMONTON       MOSUNNY   48  28  46 NW6       30.02F
LETHBRIDGE     MOSUNNY   52  30  43 N8        30.04F
$$

REGIONAL REPORTS...SASKATCHEWAN

CITY           SKY/WX    TMP DP  RH WIND       PRES   REMARKS
SWIFT CURRENT  PTSUNNY   54  27  35 W13       30.05S
REGINA         PTSUNNY   55  32  41 NW14G20   30.03S
SASKATOON      PTSUNNY   52  32  46 W14G20    30.03S
$$



USA.gov is the U.S. government's official web portal to all federal, state and local government web resources and services.